AirNav   Pilot Hours Calculator
 
 1346 users online  

L83 Thibodaux Municipal Airport
Thibodaux, Louisiana, USA

GOING TO THIBODAUX?


FAA INFORMATION EFFECTIVE 28 FEBRUARY 2019

Location

FAA Identifier: L83
Lat/Long: 29-44-52.0510N / 090-49-58.4360W
29-44.867517N / 090-49.973933W
29.7477919 / -90.8328989
(estimated)
Elevation: 9 ft. / 2.7 m (surveyed)
Variation: 02E (1995)
From city: 3 miles S of THIBODAUX, LA
Time zone: UTC -6 (UTC -5 during Daylight Saving Time)
Zip code: 70395

Airport Operations

Airport use: Open to the public
Activation date: 09/1972
Control tower: no
ARTCC: HOUSTON CENTER
FSS: DE RIDDER FLIGHT SERVICE STATION
NOTAMs facility: DRI (NOTAM-D service available)
Attendance: 0800-1700
FOR ARPT ATND AFT HRS CALL 985-209-4697.
Wind indicator: lighted
Segmented circle: no
Lights: REIL RWY 08/26; MIRL RWY 08/26 PRESET LOW INTST; TO INCR INTST ACTVT - CTAF.
Beacon: white-green (lighted land airport)
Operates sunset to sunrise.

Airport Communications

CTAF/UNICOM: 122.8
NEW ORLEANS APPROACH: 118.9
NEW ORLEANS DEPARTURE: 118.9
WX AWOS-3PT at HUM (14 nm SE): 120.25 (985-876-4055)

Nearby radio navigation aids

VOR radial/distance  VOR name  Freq  Var
TBDr356/5.0TIBBY VOR/DME112.0002E
RQRr210/24.0RESERVE VOR/DME110.8002E

Airport Services

Fuel available: 100LL
Parking: tiedowns
Airframe service: MINOR
Powerplant service: MINOR
Bottled oxygen: NONE
Bulk oxygen: NONE

Runway Information

Runway 8/26

Dimensions: 2999 x 75 ft. / 914 x 23 m
Surface: asphalt, in good condition
Weight bearing capacity: 
Single wheel: 6.0
Runway edge lights: medium intensity
RUNWAY 8  RUNWAY 26
Latitude: 29-44.839333N29-44.895050N
Longitude: 090-50.256283W090-49.692967W
Elevation: 7.0 ft.9.0 ft.
Traffic pattern: leftleft
Runway heading: 082 magnetic, 084 true262 magnetic, 264 true
Displaced threshold: no90 ft.
Markings: nonprecision, in good conditionnonprecision, in good condition
Runway end identifier lights: yesyes
Touchdown point: yes, no lightsyes, no lights
Obstructions: 82 ft. trees, 1470 ft. from runway, 15:1 slope to clear45 ft. trees, 708 ft. from runway, 53 ft. left of centerline, 11:1 slope to clear
APCH RATIO 13:1 TO DSPLCD THLD.

Airport Ownership and Management from official FAA records

Ownership: Publicly-owned
Owner: CITY OF THIBODAUX
PO BOX 5418
THIBODAUX, LA 70302-5418
Phone 985-446-7218
Manager: ROLAND SOIGNET
PO BOX 5418
THIBODAUX, LA 70302-5418
Phone 985-446-7208

Airport Operational Statistics

Aircraft based on the field: 17
Single engine airplanes: 11
Multi engine airplanes: 2
Helicopters: 4
    
Aircraft operations: avg 125/week *
54% local general aviation
46% transient general aviation
* for 12-month period ending 23 August 2018

Additional Remarks

RWY 08/26 AGRICULTURE WASHDOWN PAD 500 FT NORTH OF RWY AT MIDFLD.
FOR CD CTC MSY APCH AT 504-471-4350.

Instrument Procedures

NOTE: All procedures below are presented as PDF files. If you need a reader for these files, you should download the free Adobe Reader.

NOT FOR NAVIGATION. Please procure official charts for flight.
FAA instrument procedures published for use from 28 February 2019 at 0901Z to 28 March 2019 at 0900Z.

 
IAPs - Instrument Approach Procedures
VOR OR GPS-A   download (147KB)
NOTE: Special Take-Off Minimums/Departure Procedures apply   download (114KB)

Other nearby airports with instrument procedures:

KHUM - Houma-Terrebonne Airport (14 nm SE)
KAPS - Port of South Louisiana Executive Regional Airport (24 nm NE)
KREG - Louisiana Regional Airport (26 nm N)
KPTN - Harry P Williams Memorial Airport (26 nm W)
KMSY - Louis Armstrong New Orleans International Airport (33 nm NE)
 
Loc | Ops | Rwys | IFR | FBO | Links
Com | Nav | Svcs | Stats | Notes
Area around L83 (Thibodaux Municipal Airport)
 
Road maps at: MapQuest Bing Google
 
Aerial photo
WARNING: Photo may not be current or correct
Aerial photo of L83 (Thibodaux Municipal Airport)
Do you have a better or more recent aerial photo of Thibodaux Municipal Airport that you would like to share? If so, please send us your photo.

 
Sectional chart

 
Airport distance calculator
Flying to Thibodaux Municipal Airport? Find the distance to fly.

From to L83

Sunrise and sunset
Times for 18-Mar-2019
 Local
(UTC-5)
 Zulu
(UTC)
Morning civil twilight06:4711:47
Sunrise07:1112:11
Sunset19:1200:12
Evening civil twilight19:3600:36

Current date and time
Zulu (UTC)  18-Mar-2019 14:56:28
Local (UTC-5)  18-Mar-2019 09:56:28
 
METAR
KHUM 
14nm SE 
181347Z 05006KT 7SM CLR 11/07 A3026
KAPS 
24nm NE 
181435Z AUTO 07005KT 10SM CLR 13/04 A3029 RMK AO2 T01280042
KPTN 
25nm W 
181356Z AUTO 05004KT 10SM CLR 10/07 A3027 RMK AO2 SLP249 T01000067
KREG 
26nm N 
181435Z AUTO 05004KT 10SM CLR 11/03 A3029 RMK AO2 T01110030
TAF
KHUM 
14nm SE 
181136Z 1812/1912 02005KT P6SM FEW140 SCT250 FM181400 04011KT P6SM FEW130 FEW250 FM181600 05014G20KT P6SM SCT110 BKN250 FM190000 03004KT P6SM FEW090 SCT250
NOTAMs
Click for the latest NOTAMs
NOTAMs are issued by the DoD/FAA and will open in a separate window not controlled by AirNav.

 

 
 

FBO, Fuel Providers, and Aircraft Ground Support

  
 Business Name 
 
 Contact 
 
 Services / Description 
 
Fuel Prices
 
Comments
  
Golden Ranch Aviation 985-447-6124
no information available

If you are affiliated with Golden Ranch Aviation and would like to show here your services, contact info, web link, logo, and more, click here
100LL
FS $5.05 
 Updated 12-Mar-2019
 
   write
FS=Full service
Update Fuel Prices
 

Would you like to see your business listed on this page?

 If your business provides an interesting product or service to pilots, flight crews, aircraft, or users of the Thibodaux Municipal Airport, you should consider listing it here.  To start the listing process, click on the button below
 
Add a business
 

Other Pages about Thibodaux Municipal Airport

Update a link
 
Copyright © AirNav, LLC. All rights reserved. Privacy Policy  Contact